Regional Weather Roundup
Issued by NWS Mobile, AL

Home | Current Version | Previous Version | Text Only | Print | Product List | Glossary On
Versions: 1 2 3 4 5 6 7 8 9 10 11 12 13 14 15 16 17 18 19 20 21 22 23 24 25 26 27 28 29 30 31 32 33 34 35 36 37 38 39 40 41 42 43 44 45 46 47 48 49 50
000
ASUS44 KMOB 060016
RWRMOB
REGIONAL WEATHER ROUNDUP
NATIONAL WEATHER SERVICE MOBILE AL
700 PM CDT TUE MAY 05 2015

ALZ061>064-060100-
COASTAL ALABAMA


CITY           SKY/WX    TMP DP  RH WIND       PRES   REMARKS
MOBILE REG APT PTCLDY    75  60  59 SE8       30.13R
6HR MIN TEMP:  75; 6HR MAX TEMP:  84;

BROOKLEY FIELD CLEAR     74  62  66 S6        30.13S
6HR MIN TEMP:  74; 6HR MAX TEMP:  82;

GULF SHORES    CLEAR     74  61  65 SE3       30.12S
6HR MIN TEMP:  74; 6HR MAX TEMP:  78;


$$

ALZ051>060-060100-
INTERIOR SOUTHWEST AND SOUTH CENTRAL ALABAMA


CITY           SKY/WX    TMP DP  RH WIND       PRES   REMARKS
ANDALUSIA/OPP  CLEAR     81  51  35 E7        30.13S
6HR MIN TEMP:  81; 6HR MAX TEMP:  87;

EVERGREEN      CLEAR     77  55  46 E6        30.14R
6HR MIN TEMP:  77; 6HR MAX TEMP:  84; 6HR PCP: TRACE;

FLORALA          N/A     76  56  49 E3        30.15
6HR MIN TEMP:  76; 6HR MAX TEMP:  83;

GREENVILLE     FAIR      78  54  43 E3        30.14F
6HR MIN TEMP:  78; 6HR MAX TEMP:  84;


$$

FLZ001>006-060100-
WESTERN FLORIDA PANHANDLE


CITY           SKY/WX    TMP DP  RH WIND       PRES   REMARKS
CRESTVIEW      CLEAR     79  54  41 E5        30.13S
6HR MIN TEMP:  79; 6HR MAX TEMP:  86;

DESTIN         PTCLDY    76  64  66 S5        30.12S
6HR MIN TEMP:  76; 6HR MAX TEMP:  81;

DUKE FIELD     PTCLDY    76  60  58 S7        30.12R
6HR MIN TEMP:  76; 6HR MAX TEMP:  85;

MARY ESTHER    CLEAR     75  61  61 S7        30.11S
6HR MIN TEMP:  75; 6HR MAX TEMP:  79;

MILTON         PTCLDY    78  61  55 S5        30.12R
6HR MIN TEMP:  78; 6HR MAX TEMP:  87;

PENSACOLA      CLEAR     74  60  61 S9        30.12R
6HR MIN TEMP:  74; 6HR MAX TEMP:  80;

NAS PENSACOLA  PTCLDY    74  61  63 S6        30.12R
6HR MIN TEMP:  74; 6HR MAX TEMP:  81;

VALPARAISO     PTCLDY    75  62  64 S6        30.12S
6HR MIN TEMP:  75; 6HR MAX TEMP:  81;


$$

...MARINE OBSERVATIONS...

STATION/POSITION TIME  SKY/WX   TEMP    WIND        PRES    VSBY
                                AIR SEA DIR/SP/G
                 (UTC)          (F)     (DEG/KT/KT) (MB)    (MI)
PASCAGOULA       2300            75     130/  9/ 13 1019.8F
PETIT BOIS ISL   2300            75     130/ 12/ 16 1020.1F
E DAUPHIN ISLAND 0000            74     120/  9/ 10 1019.5S
MIDDLE BAY LIGHT 2300            74     160/ 16     1019.3S
USCG MOBILE BAY  2300            75 74  190/  8/ 13 1018.9F
STATE DOCKS      2300                               1019.7F
MEAHER PARK      0000            75     190/  8     1019.3S
FORT MORGAN      2300            74     140/  9/ 11 1019.4F
12 S ORANGE BCH  2350            74 75  130/ 10/ 12 1019.0F
WVE H/P(F/S)=  5/ 7

PENSACOLA BAY    2300                   200/  2/  4 1020.1F
64 S DAUPHIN ISL 2350            74 76  100/ 16/ 19 1019.4S
WVE H/P(F/S)=  6/ 9

67 S FORT MORGAN 2330            74                 1019.0R
115 SE PENSACOLA 2350            74 75   80/ 14/ 16 1019.1F
WVE H/P(F/S)=  4/ 6

MID GULF/42001   2350            78 79   80/ 19/ 23 1016.1R
WVE H/P(F/S)=  6/ 6

EAST GULF/42003  2350            77 81   90/ 14/ 17 1016.9R
WVE H/P(F/S)=  5/ 7


$$

...NEARBY LOCATIONS

CITY           SKY/WX    TMP DP  RH WIND       PRES   REMARKS
GULFPORT       CLEAR     75  60  59 SE16G23   30.10S
6HR MIN TEMP:  75; 6HR MAX TEMP:  80;

BILOXI         CLEAR     75  61  62 SE10      30.11S
6HR MIN TEMP:  75; 6HR MAX TEMP:  80;

PASCAGOULA     CLEAR     74  61  63 SE8       30.12S
6HR MIN TEMP:  74; 6HR MAX TEMP:  81;

HATTIESBURG    CLEAR     80  57  45 SE5       30.10S
6HR MIN TEMP:  80; 6HR MAX TEMP:  85;

LAUREL         CLEAR     81  30  16 E5        30.12S
6HR MIN TEMP:  81; 6HR MAX TEMP:  84;

MERIDIAN       CLEAR     77  55  46 E6        30.13S
6HR MIN TEMP:  77; 6HR MAX TEMP:  83;

MERIDIAN NAS   CLEAR     78  54  43 SE7       30.14S
6HR MIN TEMP:  78; 6HR MAX TEMP:  85;

MONTGOMERY     CLEAR     77  55  46 E7        30.15S
6HR MIN TEMP:  77; 6HR MAX TEMP:  85;

MAXWELL AFB    CLEAR     80  53  39 E8        30.15R
6HR MIN TEMP:  80; 6HR MAX TEMP:  85;

TROY           CLEAR     77  52  41 E6        30.16S
6HR MIN TEMP:  77; 6HR MAX TEMP:  83;

FORT RUCKER    CLEAR     77  51  40 NE5       30.13S
6HR MIN TEMP:  77; 6HR MAX TEMP:  83;

DALEVILLE      CLEAR     76  52  42 NE7       30.14S
6HR MIN TEMP:  76; 6HR MAX TEMP:  83;

DOTHAN         PTCLDY    77  52  41 E7        30.18S
6HR MIN TEMP:  77; 6HR MAX TEMP:  83;


$$

...OTHER SURROUNDING LOCATIONS...

CITY           SKY/WX    TMP DP  RH WIND       PRES   REMARKS
BIRMINGHAM     PTCLDY    79  54  41 E6        30.19S
6HR MIN TEMP:  79; 6HR MAX TEMP:  83;

TUSCALOOSA     PTCLDY    80  53  39 E7        30.15S
6HR MIN TEMP:  80; 6HR MAX TEMP:  85;

COLUMBUS GA    CLEAR     76  49  38 E7        30.17S
6HR MIN TEMP:  76; 6HR MAX TEMP:  82;

PANAMA CITY    NOT AVBL
TALLAHASSEE    MOCLDY    79  60  52 E13       30.14R
6HR MIN TEMP:  79; 6HR MAX TEMP:  86;

BATON ROUGE    CLEAR     78  57  48 E12       30.07S
6HR MIN TEMP:  78; 6HR MAX TEMP:  84;

NEW ORLEANS    PTCLDY    78  58  49 E10G17    30.09S
6HR MIN TEMP:  78; 6HR MAX TEMP:  84;

SLIDELL        CLEAR     76  61  59 SE9       30.10S
6HR MIN TEMP:  76; 6HR MAX TEMP:  82;

JACKSON        PTCLDY    80  55  42 SE7       30.10S
6HR MIN TEMP:  80; 6HR MAX TEMP:  85;

MCCOMB         CLEAR     78  58  49 SE9       30.09S
6HR MIN TEMP:  78; 6HR MAX TEMP:  83;


$$

...SURROUNDING MARINE OBSERVATIONS...

STATION/POSITION TIME  SKY/WX   TEMP    WIND        PRES    VSBY
                                AIR SEA DIR/SP/G
                 (UTC)          (F)     (DEG/KT/KT) (MB)    (MI)
WAVELAND         2300                   140/ 16/ 19 1019.3F
PASCAGOULA RGN A 2300            76     130/ 13/ 14 1019.4F
PASCAGOULA PORT  2300               79                N/A
GRAND ISLE       2300            77 77  110/ 10/ 15 1018.8F
SOUTHWEST PASS   0000            75      90/ 21/ 22 1018.7F
PILOT STATION E  2300            78 67   90/ 17/ 19 1019.3F
SHELL BEACH      2300                   100/ 14/ 16 1018.8F
PANAMA CITY      2300            79 78  290/  2/  3 1019.1F
APALACHICOLA     2300            75 73  100/  5/  6 1019.6F
TYNDALL TOWER C  0000            74      60/ 11/ 12 1019.6S
S APLCHCLA/42036 2350            75 75   30/ 14/ 16 1018.9R
WVE H/P(F/S)=  3/ 5


$$



USA.gov is the U.S. government's official web portal to all federal, state and local government web resources and services.